[keps] orb09092.amsat
Ray Hoad
r.hoad at att.net
Thu Apr 2 20:11:08 PDT 2009
SB KEPS @ AMSAT $ORB09092.O
Orbital Elements 09092.OSCAR
HR AMSAT ORBITAL ELEMENTS FOR OSCAR SATELLITES
FROM WA5QGD FORT WORTH,TX April 2, 2009
Send Subscribe/unsubscribe to KEPS at
http://www.amsat.org/mailman/listinfo/keps
BID: ORB09092.O
TO ALL RADIO AMATEURS BT
Satellite: AO-07
Catalog number: 07530
Epoch time: 09092.51213256
Element set: 441
Inclination: 101.4341 deg
RA of node: 119.9496 deg
Eccentricity: 0.0012072
Arg of perigee: 057.5686 deg
Mean anomaly: 302.6554 deg
Mean motion: 12.53575587 rev/day
Decay rate: -2.7e-07 rev/day^2
Epoch rev: 57323
Checksum: 292
Satellite: AO-10
Catalog number: 14129
Epoch time: 09091.00742006
Element set: 0640
Inclination: 025.9572 deg
RA of node: 164.0988 deg
Eccentricity: 0.5985792
Arg of perigee: 210.5252 deg
Mean anomaly: 094.1221 deg
Mean motion: 02.05867547 rev/day
Decay rate: 1.01e-06 rev/day^2
Epoch rev: 19403
Checksum: 286
Satellite: UO-11
Catalog number: 14781
Epoch time: 09091.66665395
Element set: 925
Inclination: 098.1156 deg
RA of node: 135.4137 deg
Eccentricity: 0.0008303
Arg of perigee: 219.3045 deg
Mean anomaly: 140.7572 deg
Mean motion: 14.79700987 rev/day
Decay rate: -2.26e-06 rev/day^2
Epoch rev: 34651
Checksum: 314
Satellite: RS-15
Catalog number: 23439
Epoch time: 09092.76932847
Element set: 191
Inclination: 064.8131 deg
RA of node: 026.7709 deg
Eccentricity: 0.0146758
Arg of perigee: 066.1701 deg
Mean anomaly: 295.4532 deg
Mean motion: 11.27553177 rev/day
Decay rate: -3.9e-07 rev/day^2
Epoch rev: 58761
Checksum: 330
Satellite: FO-29
Catalog number: 24278
Epoch time: 09091.68402176
Element set: 0022
Inclination: 098.5638 deg
RA of node: 335.9636 deg
Eccentricity: 0.0350586
Arg of perigee: 188.4621 deg
Mean anomaly: 171.0505 deg
Mean motion: 13.52942395 rev/day
Decay rate: -2.7e-07 rev/day^2
Epoch rev: 62340
Checksum: 320
Satellite: SO-33
Catalog number: 25509
Epoch time: 09091.44914546
Element set: 0422
Inclination: 031.4311 deg
RA of node: 126.4001 deg
Eccentricity: 0.0354135
Arg of perigee: 027.5274 deg
Mean anomaly: 334.3621 deg
Mean motion: 14.28248206 rev/day
Decay rate: 2.16e-06 rev/day^2
Epoch rev: 54485
Checksum: 270
Satellite: AO-40
Catalog number: 26609
Epoch time: 09092.16792666
Element set: 209
Inclination: 009.0768 deg
RA of node: 025.4745 deg
Eccentricity: 0.7956539
Arg of perigee: 190.5017 deg
Mean anomaly: 126.1224 deg
Mean motion: 01.25583921 rev/day
Decay rate: -3.21e-06 rev/day^2
Epoch rev: 3867
Checksum: 320
Satellite: RS-22
Catalog number: 27939
Epoch time: 09092.57139696
Element set: 755
Inclination: 097.9560 deg
RA of node: 330.1489 deg
Eccentricity: 0.0013908
Arg of perigee: 016.3195 deg
Mean anomaly: 343.8445 deg
Mean motion: 14.63304711 rev/day
Decay rate: 1.1e-07 rev/day^2
Epoch rev: 29451
Checksum: 322
Satellite: VO-52
Catalog number: 28650
Epoch time: 09091.80030356
Element set: 193
Inclination: 097.7484 deg
RA of node: 155.8811 deg
Eccentricity: 0.0026024
Arg of perigee: 279.9261 deg
Mean anomaly: 079.9056 deg
Mean motion: 14.81567140 rev/day
Decay rate: 1.17e-06 rev/day^2
Epoch rev: 21133
Checksum: 305
Satellite: PO-63
Catalog number: 29712
Epoch time: 09092.59241807
Element set: 366
Inclination: 097.8365 deg
RA of node: 150.7842 deg
Eccentricity: 0.0014555
Arg of perigee: 156.4580 deg
Mean anomaly: 203.7309 deg
Mean motion: 14.80490986 rev/day
Decay rate: 5.20e-06 rev/day^2
Epoch rev: 12028
Checksum: 318
/EX
SB KEPS @ AMSAT $ORB09092.D
Orbital Elements 09092.MICROS
HR AMSAT ORBITAL ELEMENTS FOR THE MICROSATS
FROM WA5QGD FORT WORTH,TX April 2, 2009
Send Subscribe/unsubscribe to KEPS at
http://www.amsat.org/mailman/listinfo/keps
BID: ORB09092.D
TO ALL RADIO AMATEURS BT
Satellite: AO-16
Catalog number: 20439
Epoch time: 09092.52256830
Element set: 571
Inclination: 098.2719 deg
RA of node: 064.3972 deg
Eccentricity: 0.0011664
Arg of perigee: 039.8914 deg
Mean anomaly: 320.3124 deg
Mean motion: 14.31819811 rev/day
Decay rate: .00000000 rev/day^2
Epoch rev: 232
Checksum: 270
Satellite: LO-19
Catalog number: 20442
Epoch time: 09092.45221533
Element set: 491
Inclination: 098.2366 deg
RA of node: 071.8836 deg
Eccentricity: 0.0012670
Arg of perigee: 036.2433 deg
Mean anomaly: 323.9626 deg
Mean motion: 14.32056107 rev/day
Decay rate: -1.0e-08 rev/day^2
Epoch rev: 247
Checksum: 272
Satellite: AO-27
Catalog number: 22825
Epoch time: 09091.90895350
Element set: 0212
Inclination: 098.4292 deg
RA of node: 047.7634 deg
Eccentricity: 0.0009079
Arg of perigee: 124.8818 deg
Mean anomaly: 235.3217 deg
Mean motion: 14.29261603 rev/day
Decay rate: -1.9e-07 rev/day^2
Epoch rev: 80901
Checksum: 310
Satellite: IO-26
Catalog number: 22826
Epoch time: 09091.84257582
Element set: 0934
Inclination: 098.4215 deg
RA of node: 048.4816 deg
Eccentricity: 0.0009700
Arg of perigee: 122.1315 deg
Mean anomaly: 238.0817 deg
Mean motion: 14.29513105 rev/day
Decay rate: 4.0e-08 rev/day^2
Epoch rev: 80910
Checksum: 289
Satellite: GO-32
Catalog number: 25397
Epoch time: 09091.57923045
Element set: 0859
Inclination: 098.3335 deg
RA of node: 118.0019 deg
Eccentricity: 0.0002064
Arg of perigee: 105.6818 deg
Mean anomaly: 254.4589 deg
Mean motion: 14.23156512 rev/day
Decay rate: -8.4e-07 rev/day^2
Epoch rev: 55723
Checksum: 312
Satellite: NO-44
Catalog number: 26931
Epoch time: 09092.51483993
Element set: 135
Inclination: 067.0516 deg
RA of node: 259.2949 deg
Eccentricity: 0.0005097
Arg of perigee: 264.5829 deg
Mean anomaly: 095.4681 deg
Mean motion: 14.29551987 rev/day
Decay rate: -4.7e-07 rev/day^2
Epoch rev: 39176
Checksum: 355
Satellite: SO-50
Catalog number: 27607
Epoch time: 09091.59189399
Element set: 850
Inclination: 064.5561 deg
RA of node: 257.7199 deg
Eccentricity: 0.0075202
Arg of perigee: 222.5337 deg
Mean anomaly: 136.9921 deg
Mean motion: 14.71423300 rev/day
Decay rate: -8.7e-07 rev/day^2
Epoch rev: 33740
Checksum: 319
Satellite: CO-55
Catalog number: 27844
Epoch time: 09091.57484598
Element set: 0547
Inclination: 098.7143 deg
RA of node: 101.8182 deg
Eccentricity: 0.0010207
Arg of perigee: 010.1410 deg
Mean anomaly: 349.9971 deg
Mean motion: 14.20629361 rev/day
Decay rate: 3.1e-07 rev/day^2
Epoch rev: 29838
Checksum: 311
Satellite: CO-57
Catalog number: 27848
Epoch time: 09091.82349192
Element set: 0494
Inclination: 098.7180 deg
RA of node: 101.1268 deg
Eccentricity: 0.0010170
Arg of perigee: 012.5222 deg
Mean anomaly: 347.6211 deg
Mean motion: 14.20432978 rev/day
Decay rate: 4.2e-07 rev/day^2
Epoch rev: 29838
Checksum: 301
Satellite: AO-51
Catalog number: 28375
Epoch time: 09091.56481326
Element set: 0354
Inclination: 098.0559 deg
RA of node: 105.6281 deg
Eccentricity: 0.0084854
Arg of perigee: 358.3738 deg
Mean anomaly: 001.7164 deg
Mean motion: 14.40637136 rev/day
Decay rate: 3.0e-08 rev/day^2
Epoch rev: 24992
Checksum: 317
Satellite: CO-56
Catalog number: 28941
Epoch time: 09092.68492113
Element set: 955
Inclination: 098.1343 deg
RA of node: 253.4769 deg
Eccentricity: 0.0105735
Arg of perigee: 056.2366 deg
Mean anomaly: 304.9002 deg
Mean motion: 15.76847260 rev/day
Decay rate: 5.2395e-04 rev/day^2
Epoch rev: 17532
Checksum: 335
Satellite: CP3
Catalog number: 31128
Epoch time: 09091.66190445
Element set: 0594
Inclination: 097.9948 deg
RA of node: 148.2823 deg
Eccentricity: 0.0102996
Arg of perigee: 161.8239 deg
Mean anomaly: 198.6681 deg
Mean motion: 14.52028939 rev/day
Decay rate: -4.6e-07 rev/day^2
Epoch rev: 10379
Checksum: 344
Satellite: CP4
Catalog number: 31132
Epoch time: 09091.89178781
Element set: 0573
Inclination: 098.0028 deg
RA of node: 152.1225 deg
Eccentricity: 0.0086473
Arg of perigee: 150.4017 deg
Mean anomaly: 210.2091 deg
Mean motion: 14.55194132 rev/day
Decay rate: 1.0e-07 rev/day^2
Epoch rev: 10393
Checksum: 265
Satellite: CO-65
Catalog number: 32785
Epoch time: 09091.60069051
Element set: 0333
Inclination: 097.9542 deg
RA of node: 156.1756 deg
Eccentricity: 0.0013877
Arg of perigee: 282.2156 deg
Mean anomaly: 077.7511 deg
Mean motion: 14.81463451 rev/day
Decay rate: 1.73e-06 rev/day^2
Epoch rev: 05010
Checksum: 302
Satellite: SOHLA-1
Catalog number: 33496
Epoch time: 09092.59759831
Element set: 211
Inclination: 098.0297 deg
RA of node: 203.1164 deg
Eccentricity: 0.0006978
Arg of perigee: 154.1592 deg
Mean anomaly: 205.9963 deg
Mean motion: 14.69427164 rev/day
Decay rate: -3.0e-08 rev/day^2
Epoch rev: 1017
Checksum: 309
/EX
SB KEPS @ AMSAT $ORB09092.W
Orbital Elements 09092.WEATHER
HR AMSAT ORBITAL ELEMENTS FOR WEATHER SATELLITES
FROM WA5QGD FORT WORTH,TX April 2, 2009
Send Subscribe/unsubscribe to KEPS at
http://www.amsat.org/mailman/listinfo/keps
BID: ORB09092.W
TO ALL RADIO AMATEURS BT
Satellite: NOAA-10
Catalog number: 16969
Epoch time: 09091.61024306
Element set: 0558
Inclination: 098.6989 deg
RA of node: 118.6513 deg
Eccentricity: 0.0013150
Arg of perigee: 062.0424 deg
Mean anomaly: 298.2100 deg
Mean motion: 14.27382950 rev/day
Decay rate: -3.8e-07 rev/day^2
Epoch rev: 17258
Checksum: 302
Satellite: NOAA-11
Catalog number: 19531
Epoch time: 09091.83383846
Element set: 0569
Inclination: 098.7817 deg
RA of node: 182.9690 deg
Eccentricity: 0.0011277
Arg of perigee: 330.2770 deg
Mean anomaly: 029.7763 deg
Mean motion: 14.14891083 rev/day
Decay rate: -1.68e-06 rev/day^2
Epoch rev: 05872
Checksum: 339
Satellite: NOAA-12
Catalog number: 21263
Epoch time: 09091.95478780
Element set: 0085
Inclination: 098.7736 deg
RA of node: 099.9771 deg
Eccentricity: 0.0012827
Arg of perigee: 011.6344 deg
Mean anomaly: 348.5125 deg
Mean motion: 14.25572256 rev/day
Decay rate: 1.7e-07 rev/day^2
Epoch rev: 92953
Checksum: 332
Satellite: MET-3/5
Catalog number: 21655
Epoch time: 09091.95222198
Element set: 0715
Inclination: 082.5491 deg
RA of node: 260.3520 deg
Eccentricity: 0.0014241
Arg of perigee: 016.0670 deg
Mean anomaly: 344.0901 deg
Mean motion: 13.17019171 rev/day
Decay rate: 5.1e-07 rev/day^2
Epoch rev: 84759
Checksum: 278
